Hourly Data Report for October 06, 2017

All times are specified in Local Standard Time (LST). Add 1 hour to adjust for Daylight Saving Time where and when it is observed.

ST. STEPHEN
NEW BRUNSWICK

45°12'36.600" N
67°15'10.300" W
26.10 m
8104935
71607
WSS

Download Data

Hourly Data (October 2017)
Hourly Data Report for October 6, 2017
Temp Definition
°C
Dew Point Temp Definition
°C
Rel Hum Definition
%
Wind Dir Definition
10's deg

Wind Spd Definition
km/h
Visibility Definition
km
Stn Press Definition
kPa
Hmdx Definition


Wind Chill Definition


Weather Definition


TIME
00:00 9.9 6.8 81 28 1   101.07     LegendNANA
01:00 9.4 7.4 87   0   101.11     LegendNANA
02:00 8.2 6.7 90 0 1   101.11     LegendNANA
03:00 7.6 6.3 92   0   101.12     LegendNANA
04:00 7.2 6.1 93 0 1   101.15     LegendNANA
05:00 6.8 5.6 92   0   101.21     LegendNANA
06:00 6.5 5.6 94 27 2   101.26     LegendNANA
07:00 6.5 5.6 94 26 4   101.33     LegendNANA
08:00 9.5 8.2 92   0   101.37     LegendNANA
09:00 14.1 7.3 64 25 2   101.40     LegendNANA
10:00 15.5 6.8 56 29 4   101.38     LegendNANA
11:00 16.5 7.2 54 25 10   101.38     LegendNANA
12:00 16.7 8.1 57 23 8   101.34     LegendNANA
13:00 16.4 8.0 57 23 9   101.31     LegendNANA
14:00 15.5 8.8 65 20 10   101.36     LegendNANA
15:00 15.3 8.8 65 22 6   101.30     LegendNANA
16:00 17.3 9.2 59 21 9   101.25     LegendNANA
17:00 17.0 9.7 62 22 11   101.26     LegendNANA
18:00 13.9 10.0 77   0   101.31     LegendNANA
19:00 10.4 8.8 90   0   101.37     LegendNANA
20:00 8.6 7.4 92   0   101.42     LegendNANA
21:00 7.7 6.8 94 0 1   101.49     LegendNANA
22:00 7.0 6.2 95 0 1   101.58     LegendNANA
23:00 6.9 6.2 95   0   101.64     LegendNANA

Notes on Data Quality.

Legend

  • E = Estimated
  • M = Missing
  • NA = Not Available
  • ‡ = Partner data that is not subject to review by the National Climate Archives
Date modified: